map of KMRH home
KMRH - Airport
Location
City:  Beaufort, North Carolina, United States
Name:Michael J Smith Field
ICAO:KMRH
FAA LID:MRH

Details
Type:Airport (Airfield)
Use:Public/Civil, International (customs landing rights)
Latitude:3444'02"N (34.733750)
Longitude:7639'37"W (-76.660360)
Datum:WGS 1984
Elevation:10 ft (3 m)
Variation:10.26W (WMM2015 magnetic declination)
-0.03 annual change
Runways:3
Longest:5003 × 100 ft (1525 × 30.5 m), paved

Time
Time Zone:UTC-5 (DST-4)
Local Time:

Weather
METAR:KMRH 220958Z AUTO 07003KT 10SM CLR 09/08 A3036 RMK AO2 SLP280 T00890078

Related Locations
Nearby:
Farthest:YAUG: 11770 mi / 18941 km
Augusta [Augusta Airport], WA, AU

Find:

   beyond  
but within

Other Information
Maps:
NOTAMs:
Links:
Sources:

  
flag of United States
flag of North Carolina
  

Sectional Chart

Flight Planning
at skyvector.com

Satellite Image

Google Maps Satellite view

 

Copyright © 2004-2018 Karl L. Swartz. All rights reserved.
The Great Circle Mapper name and logo are trademarks of the Great Circle Mapper.
All other trademarks mentioned herein belong to their respective owners.
Please see credits for attibutions and further copyright information.

  Follow gcmap on Facebook Follow gcmap on Twitter Follow gcmap on Google+ GCmap on LinkedIn

hCard Microformat

Geo Microformat